Regional Weather Roundup
Issued by NWS Cleveland, OH

Home | Current Version | Previous Version | Graphics & Text | Print | Product List | Glossary On
Versions: 1 2 3 4 5 6 7 8 9 10 11 12 13 14 15 16 17 18 19 20 21 22 23 24 25 26 27 28 29 30 31 32 33 34 35 36 37 38 39 40 41 42 43 44 45 46 47 48 49 50
000
ASUS41 KCLE 311102
RWRCLE
OHIO REGIONAL WEATHER ROUNDUP
NATIONAL WEATHER SERVICE CLEVELAND, OH
700 AM EDT WED AUG 31 2016

NOTE: "FAIR" INDICATES FEW OR NO CLOUDS BELOW 12,000 FEET WITH NO
SIGNIFICANT WEATHER AND/OR OBSTRUCTIONS TO VISIBILITY.

OHZ001>008-015>018-024>027-034-035-043-044-311200-
   NORTHWEST OHIO

CITY           SKY/WX    TMP DP  RH WIND       PRES   REMARKS
DEFIANCE       CLOUDY    70  67  90 CALM      30.02S FOG
FINDLAY        CLOUDY    70  66  87 CALM      30.01S FOG
TOLEDO EXPRESS PTCLDY    68  68 100 CALM      30.01R FOG
TOLEDO EXEC    CLOUDY    70  70 100 SW3       30.01S FOG
LIMA           CLOUDY    69  69 100 SW3       30.03S
$$

OHZ009>014-019>023-028>033-038-089-311200-
   NORTHEAST OHIO

CITY           SKY/WX    TMP DP  RH WIND       PRES   REMARKS
CLE-HOPKINS    CLOUDY    73  65  75 SW5       30.03R
CLE-LAKEFRONT  CLOUDY    74  67  78 SW6       29.99R
CUY CO. ARPT   CLOUDY    73  68  83 SW5       30.01
LORAIN-ELYRIA  CLOUDY    69  66  90 CALM      30.02S
ASHTABULA      CLOUDY    67  64  90 CALM      30.01S
AKRON-CANTON   CLOUDY    69  62  78 SW5       30.03R
WOOSTER        CLOUDY    68  65  90 CALM      30.04R
MANSFIELD      CLOUDY    71  68  90 CALM      30.04S
YOUNGSTOWN     CLOUDY    68  59  73 CALM      30.02S
$$

OHZ042-051>053-060>062-070>072-077>081-311200-
  SOUTHWEST OHIO

CITY           SKY/WX    TMP DP  RH WIND       PRES   REMARKS
CINC-COVINGTON MOCLDY    70  68  93 CALM      30.02S
CINC-LUNKEN    CLOUDY    68  68 100 NE3       30.02R
HAMILTON       CLOUDY    70  67  90 CALM      30.03R
DAYTON         MOCLDY    69  68  96 NW6       30.05R
WRIGHT-PAT AFB MOCLDY    70  70 100 N3        30.03R
DAYTON GENERAL MOCLDY    69  66  90 N3        30.03R
WILMINGTON     CLOUDY    68  67  96 N3        30.03R
$$

OHZ036-037-039>041-045>050-054>059-063>069-073>076-082>088-311200-
  CENTRAL AND SOUTHEAST OHIO

CITY           SKY/WX    TMP DP  RH WIND       PRES   REMARKS
COLUMBUS       MOCLDY    70  65  84 E3        30.01S
OSU AIRPORT    CLOUDY    72  69  90 CALM      30.02S
BOLTON FIELD   CLOUDY    68  67  97 CALM      30.03R
RICKENBACK AFB NOT AVBL
NEWARK         CLOUDY    68  66  93 CALM      30.02R
MARION         CLOUDY    70  68  93 CALM      30.04R FOG
LANCASTER      CLOUDY    67  66  97 CALM      30.02R
ZANESVILLE     CLOUDY    65  63  93 CALM      30.03R
NEW PHILLY     CLOUDY    68  64  87 CALM      30.04R
$$




USA.gov is the U.S. government's official web portal to all federal, state and local government web resources and services.